﻿測定場所 (Monitoring sites),日付 (Measurement date),時間 (Measurement time),線量率 最大値 (max) μGy/h,線量率 最小値 (min) μGy/h,線量率 平均値 (average) μGy/h,
八王子 (Hachioji),2021-01-24,23:01～24:00,0.0371,0.0332,0.0356,
八王子 (Hachioji),2021-01-24,22:01～23:00,0.0381,0.0341,0.0363,
八王子 (Hachioji),2021-01-24,21:01～22:00,0.0393,0.0345,0.0364,
八王子 (Hachioji),2021-01-24,20:01～21:00,0.0387,0.0345,0.0360,
八王子 (Hachioji),2021-01-24,19:01～20:00,0.0371,0.0338,0.0355,
八王子 (Hachioji),2021-01-24,18:01～19:00,0.0368,0.0324,0.0349,
八王子 (Hachioji),2021-01-24,17:01～18:00,0.0353,0.0306,0.0324,
八王子 (Hachioji),2021-01-24,16:01～17:00,0.0352,0.0301,0.0324,
八王子 (Hachioji),2021-01-24,15:01～16:00,0.0345,0.0307,0.0327,
八王子 (Hachioji),2021-01-24,14:01～15:00,0.0338,0.0303,0.0320,
八王子 (Hachioji),2021-01-24,13:01～14:00,0.0351,0.0304,0.0331,
八王子 (Hachioji),2021-01-24,12:01～13:00,0.0406,0.0329,0.0357,
八王子 (Hachioji),2021-01-24,11:01～12:00,0.0466,0.0364,0.0405,
八王子 (Hachioji),2021-01-24,10:01～11:00,0.0537,0.0430,0.0470,
八王子 (Hachioji),2021-01-24,09:01～10:00,0.0501,0.0414,0.0464,
八王子 (Hachioji),2021-01-24,08:01～09:00,0.0472,0.0387,0.0430,
八王子 (Hachioji),2021-01-24,07:01～08:00,0.0480,0.0400,0.0438,
八王子 (Hachioji),2021-01-24,06:01～07:00,0.0484,0.0409,0.0444,
八王子 (Hachioji),2021-01-24,05:01～06:00,0.0544,0.0435,0.0501,
八王子 (Hachioji),2021-01-24,04:01～05:00,0.0546,0.0461,0.0506,
八王子 (Hachioji),2021-01-24,03:01～04:00,0.0505,0.0414,0.0465,
八王子 (Hachioji),2021-01-24,02:01～03:00,0.0509,0.0431,0.0462,
八王子 (Hachioji),2021-01-24,01:01～02:00,0.0531,0.0454,0.0493,
八王子 (Hachioji),2021-01-24,00:01～01:00,0.0569,0.0480,0.0529,
八王子 (Hachioji),2021-01-23,23:01～24:00,0.0585,0.0489,0.0533,
八王子 (Hachioji),2021-01-23,22:01～23:00,0.0595,0.0491,0.0534,
八王子 (Hachioji),2021-01-23,21:01～22:00,0.0592,0.0518,0.0550,
八王子 (Hachioji),2021-01-23,20:01～21:00,0.0576,0.0511,0.0541,
八王子 (Hachioji),2021-01-23,19:01～20:00,0.0604,0.0527,0.0565,
八王子 (Hachioji),2021-01-23,18:01～19:00,0.0586,0.0455,0.0533,
八王子 (Hachioji),2021-01-23,17:01～18:00,0.0518,0.0434,0.0466,
八王子 (Hachioji),2021-01-23,16:01～17:00,0.0510,0.0437,0.0470,
八王子 (Hachioji),2021-01-23,15:01～16:00,0.0538,0.0433,0.0492,
八王子 (Hachioji),2021-01-23,14:01～15:00,0.0535,0.0450,0.0489,
八王子 (Hachioji),2021-01-23,13:01～14:00,0.0545,0.0460,0.0510,
八王子 (Hachioji),2021-01-23,12:01～13:00,0.0549,0.0471,0.0504,
八王子 (Hachioji),2021-01-23,11:01～12:00,0.0541,0.0456,0.0499,
八王子 (Hachioji),2021-01-23,10:01～11:00,0.0546,0.0455,0.0501,
八王子 (Hachioji),2021-01-23,09:01～10:00,0.0509,0.0347,0.0413,
八王子 (Hachioji),2021-01-23,08:01～09:00,0.0359,0.0316,0.0334,
八王子 (Hachioji),2021-01-23,07:01～08:00,0.0352,0.0311,0.0331,
八王子 (Hachioji),2021-01-23,06:01～07:00,0.0346,0.0301,0.0329,
八王子 (Hachioji),2021-01-23,05:01～06:00,0.0353,0.0306,0.0329,
八王子 (Hachioji),2021-01-23,04:01～05:00,0.0360,0.0307,0.0330,
八王子 (Hachioji),2021-01-23,03:01～04:00,0.0363,0.0309,0.0333,
八王子 (Hachioji),2021-01-23,02:01～03:00,0.0354,0.0310,0.0334,
八王子 (Hachioji),2021-01-23,01:01～02:00,0.0367,0.0315,0.0336,
八王子 (Hachioji),2021-01-23,00:01～01:00,0.0360,0.0323,0.0341,
八王子 (Hachioji),2021-01-22,23:01～24:00,0.0357,0.0320,0.0339,
八王子 (Hachioji),2021-01-22,22:01～23:00,0.0363,0.0316,0.0340,
八王子 (Hachioji),2021-01-22,21:01～22:00,0.0357,0.0318,0.0338,
八王子 (Hachioji),2021-01-22,20:01～21:00,0.0366,0.0317,0.0336,
八王子 (Hachioji),2021-01-22,19:01～20:00,0.0349,0.0319,0.0336,
八王子 (Hachioji),2021-01-22,18:01～19:00,0.0356,0.0310,0.0332,
八王子 (Hachioji),2021-01-22,17:01～18:00,0.0352,0.0312,0.0331,
八王子 (Hachioji),2021-01-22,16:01～17:00,0.0348,0.0307,0.0328,
八王子 (Hachioji),2021-01-22,15:01～16:00,0.0359,0.0308,0.0328,
八王子 (Hachioji),2021-01-22,14:01～15:00,0.0352,0.0314,0.0331,
八王子 (Hachioji),2021-01-22,13:01～14:00,0.0356,0.0310,0.0326,
八王子 (Hachioji),2021-01-22,12:01～13:00,0.0354,0.0306,0.0327,
八王子 (Hachioji),2021-01-22,11:01～12:00,0.0351,0.0300,0.0332,
八王子 (Hachioji),2021-01-22,10:01～11:00,0.0360,0.0310,0.0332,
八王子 (Hachioji),2021-01-22,09:01～10:00,0.0364,0.0310,0.0337,
八王子 (Hachioji),2021-01-22,08:01～09:00,0.0356,0.0314,0.0337,
八王子 (Hachioji),2021-01-22,07:01～08:00,0.0353,0.0314,0.0337,
八王子 (Hachioji),2021-01-22,06:01～07:00,0.0363,0.0326,0.0343,
八王子 (Hachioji),2021-01-22,05:01～06:00,0.0363,0.0315,0.0341,
八王子 (Hachioji),2021-01-22,04:01～05:00,0.0364,0.0324,0.0344,
八王子 (Hachioji),2021-01-22,03:01～04:00,0.0367,0.0318,0.0341,
八王子 (Hachioji),2021-01-22,02:01～03:00,0.0358,0.0319,0.0337,
八王子 (Hachioji),2021-01-22,01:01～02:00,0.0353,0.0304,0.0332,
八王子 (Hachioji),2021-01-22,00:01～01:00,0.0363,0.0314,0.0333,
八王子 (Hachioji),2021-01-21,23:01～24:00,0.0357,0.0312,0.0334,
八王子 (Hachioji),2021-01-21,22:01～23:00,0.0350,0.0312,0.0335,
八王子 (Hachioji),2021-01-21,21:01～22:00,0.0352,0.0313,0.0334,
八王子 (Hachioji),2021-01-21,20:01～21:00,0.0352,0.0314,0.0332,
八王子 (Hachioji),2021-01-21,19:01～20:00,0.0359,0.0307,0.0331,
八王子 (Hachioji),2021-01-21,18:01～19:00,0.0354,0.0312,0.0327,
八王子 (Hachioji),2021-01-21,17:01～18:00,0.0349,0.0302,0.0325,
八王子 (Hachioji),2021-01-21,16:01～17:00,0.0349,0.0303,0.0325,
八王子 (Hachioji),2021-01-21,15:01～16:00,0.0342,0.0307,0.0322,
八王子 (Hachioji),2021-01-21,14:01～15:00,0.0347,0.0288,0.0324,
八王子 (Hachioji),2021-01-21,13:01～14:00,0.0344,0.0300,0.0327,
八王子 (Hachioji),2021-01-21,12:01～13:00,0.0350,0.0298,0.0325,
八王子 (Hachioji),2021-01-21,11:01～12:00,0.0355,0.0309,0.0328,
八王子 (Hachioji),2021-01-21,10:01～11:00,0.0356,0.0305,0.0329,
八王子 (Hachioji),2021-01-21,09:01～10:00,0.0354,0.0314,0.0334,
八王子 (Hachioji),2021-01-21,08:01～09:00,0.0368,0.0326,0.0348,
八王子 (Hachioji),2021-01-21,07:01～08:00,0.0372,0.0337,0.0356,
八王子 (Hachioji),2021-01-21,06:01～07:00,0.0368,0.0331,0.0351,
八王子 (Hachioji),2021-01-21,05:01～06:00,0.0369,0.0328,0.0345,
八王子 (Hachioji),2021-01-21,04:01～05:00,0.0372,0.0320,0.0340,
八王子 (Hachioji),2021-01-21,03:01～04:00,0.0359,0.0312,0.0336,
八王子 (Hachioji),2021-01-21,02:01～03:00,0.0355,0.0320,0.0338,
八王子 (Hachioji),2021-01-21,01:01～02:00,0.0353,0.0316,0.0335,
八王子 (Hachioji),2021-01-21,00:01～01:00,0.0353,0.0312,0.0334,
八王子 (Hachioji),2021-01-20,23:01～24:00,0.0351,0.0311,0.0332,
八王子 (Hachioji),2021-01-20,22:01～23:00,0.0346,0.0308,0.0330,
八王子 (Hachioji),2021-01-20,21:01～22:00,0.0347,0.0303,0.0326,
八王子 (Hachioji),2021-01-20,20:01～21:00,0.0341,0.0297,0.0321,
八王子 (Hachioji),2021-01-20,19:01～20:00,0.0340,0.0301,0.0320,
八王子 (Hachioji),2021-01-20,18:01～19:00,0.0336,0.0294,0.0318,
八王子 (Hachioji),2021-01-20,17:01～18:00,0.0338,0.0302,0.0319,
八王子 (Hachioji),2021-01-20,16:01～17:00,0.0337,0.0303,0.0318,
八王子 (Hachioji),2021-01-20,15:01～16:00,0.0338,0.0296,0.0316,
八王子 (Hachioji),2021-01-20,14:01～15:00,0.0344,0.0299,0.0317,
八王子 (Hachioji),2021-01-20,13:01～14:00,0.0346,0.0297,0.0322,
八王子 (Hachioji),2021-01-20,12:01～13:00,0.0339,0.0301,0.0322,
八王子 (Hachioji),2021-01-20,11:01～12:00,0.0355,0.0300,0.0323,
八王子 (Hachioji),2021-01-20,10:01～11:00,0.0338,0.0294,0.0319,
八王子 (Hachioji),2021-01-20,09:01～10:00,0.0352,0.0310,0.0330,
八王子 (Hachioji),2021-01-20,08:01～09:00,0.0388,0.0325,0.0343,
八王子 (Hachioji),2021-01-20,07:01～08:00,0.0360,0.0316,0.0338,
八王子 (Hachioji),2021-01-20,06:01～07:00,0.0356,0.0318,0.0337,
八王子 (Hachioji),2021-01-20,05:01～06:00,0.0351,0.0314,0.0333,
八王子 (Hachioji),2021-01-20,04:01～05:00,0.0359,0.0312,0.0332,
八王子 (Hachioji),2021-01-20,03:01～04:00,0.0356,0.0318,0.0334,
八王子 (Hachioji),2021-01-20,02:01～03:00,0.0350,0.0309,0.0326,
八王子 (Hachioji),2021-01-20,01:01～02:00,0.0349,0.0305,0.0324,
八王子 (Hachioji),2021-01-20,00:01～01:00,0.0345,0.0298,0.0323,
八王子 (Hachioji),2021-01-19,23:01～24:00,0.0349,0.0304,0.0324,
八王子 (Hachioji),2021-01-19,22:01～23:00,0.0343,0.0305,0.0326,
八王子 (Hachioji),2021-01-19,21:01～22:00,0.0342,0.0299,0.0323,
八王子 (Hachioji),2021-01-19,20:01～21:00,0.0358,0.0304,0.0326,
八王子 (Hachioji),2021-01-19,19:01～20:00,0.0352,0.0301,0.0324,
八王子 (Hachioji),2021-01-19,18:01～19:00,0.0343,0.0292,0.0324,
八王子 (Hachioji),2021-01-19,17:01～18:00,0.0342,0.0310,0.0324,
八王子 (Hachioji),2021-01-19,16:01～17:00,0.0346,0.0305,0.0325,
八王子 (Hachioji),2021-01-19,15:01～16:00,0.0355,0.0300,0.0327,
八王子 (Hachioji),2021-01-19,14:01～15:00,0.0351,0.0302,0.0330,
八王子 (Hachioji),2021-01-19,13:01～14:00,0.0352,0.0307,0.0329,
八王子 (Hachioji),2021-01-19,12:01～13:00,0.0349,0.0310,0.0330,
八王子 (Hachioji),2021-01-19,11:01～12:00,0.0352,0.0310,0.0327,
八王子 (Hachioji),2021-01-19,10:01～11:00,0.0352,0.0309,0.0330,
八王子 (Hachioji),2021-01-19,09:01～10:00,0.0355,0.0309,0.0328,
八王子 (Hachioji),2021-01-19,08:01～09:00,0.0354,0.0307,0.0329,
八王子 (Hachioji),2021-01-19,07:01～08:00,0.0363,0.0317,0.0337,
八王子 (Hachioji),2021-01-19,06:01～07:00,0.0359,0.0311,0.0333,
八王子 (Hachioji),2021-01-19,05:01～06:00,0.0353,0.0312,0.0330,
八王子 (Hachioji),2021-01-19,04:01～05:00,0.0346,0.0309,0.0331,
八王子 (Hachioji),2021-01-19,03:01～04:00,0.0358,0.0312,0.0330,
八王子 (Hachioji),2021-01-19,02:01～03:00,0.0358,0.0309,0.0327,
八王子 (Hachioji),2021-01-19,01:01～02:00,0.0354,0.0301,0.0328,
八王子 (Hachioji),2021-01-19,00:01～01:00,0.0348,0.0296,0.0325,
八王子 (Hachioji),2021-01-18,23:01～24:00,0.0351,0.0310,0.0326,
八王子 (Hachioji),2021-01-18,22:01～23:00,0.0347,0.0307,0.0324,
八王子 (Hachioji),2021-01-18,21:01～22:00,0.0348,0.0310,0.0327,
八王子 (Hachioji),2021-01-18,20:01～21:00,0.0355,0.0311,0.0331,
八王子 (Hachioji),2021-01-18,19:01～20:00,0.0359,0.0312,0.0334,
八王子 (Hachioji),2021-01-18,18:01～19:00,0.0347,0.0300,0.0327,
八王子 (Hachioji),2021-01-18,17:01～18:00,0.0345,0.0304,0.0326,
八王子 (Hachioji),2021-01-18,16:01～17:00,0.0348,0.0304,0.0327,
八王子 (Hachioji),2021-01-18,15:01～16:00,0.0348,0.0301,0.0326,
八王子 (Hachioji),2021-01-18,14:01～15:00,0.0361,0.0308,0.0331,
八王子 (Hachioji),2021-01-18,13:01～14:00,0.0356,0.0319,0.0335,
八王子 (Hachioji),2021-01-18,12:01～13:00,0.0350,0.0313,0.0330,
八王子 (Hachioji),2021-01-18,11:01～12:00,0.0351,0.0309,0.0330,
八王子 (Hachioji),2021-01-18,10:01～11:00,0.0349,0.0312,0.0330,
八王子 (Hachioji),2021-01-18,09:01～10:00,0.0356,0.0311,0.0335,
八王子 (Hachioji),2021-01-18,08:01～09:00,0.0356,0.0310,0.0333,
八王子 (Hachioji),2021-01-18,07:01～08:00,0.0362,0.0315,0.0336,
八王子 (Hachioji),2021-01-18,06:01～07:00,0.0357,0.0312,0.0340,
八王子 (Hachioji),2021-01-18,05:01～06:00,0.0361,0.0322,0.0342,
八王子 (Hachioji),2021-01-18,04:01～05:00,0.0360,0.0322,0.0341,
八王子 (Hachioji),2021-01-18,03:01～04:00,0.0356,0.0306,0.0337,
八王子 (Hachioji),2021-01-18,02:01～03:00,0.0358,0.0310,0.0335,
八王子 (Hachioji),2021-01-18,01:01～02:00,0.0360,0.0314,0.0333,
八王子 (Hachioji),2021-01-18,00:01～01:00,0.0356,0.0316,0.0338,
